[[{"header":{"parameterUnit":"m.s-1","parameterCategory":1,"la1":30.2991,"la2":30.254,"lo1":-89.0895,"lo2":-89.0444,"dy":0.0017,"dx":0.0017,"nx":28,"ny":28,"refTime":"2023-10-26T03:00:00:Z","depth":0,"parameterNumber":2,"parameterNumberName":"U-component_of_WINDS"},"data":[0,0,0,0,0,0,0,0,0,0,0,0,0,0,0,0,0,0,0,0,0,0,0,0,0,0,0,0,0,0,0,0,0,0,0,0,0,0,0,0,0,0,0,0,0,0,0,0,0,0,0,0,0,0,0,0,0,0,-2.6395,-2.6394,0,-2.6335,-2.6335,-2.6334,-2.6211,-2.6209,-2.6206,-2.6204,-2.6148,-2.6149,-2.6149,0,0,0,0,0,0,0,0,0,0,0,0,0,-2.641,-2.641,-2.6395,-2.6394,-2.6393,-2.6335,-2.6335,-2.6334,-2.6212,-2.6209,-2.6206,-2.6203,-2.6148,-2.6148,-2.6149,0,0,0,0,0,0,0,0,0,0,0,0,0,-2.6382,-2.641,-2.6395,-2.6325,-2.6318,-2.6336,-2.6335,-2.6334,-2.6212,-2.6209,-2.6205,-2.6201,-2.6147,-2.6148,-2.615,-2.6231,0,0,-2.6153,-2.6154,0,0,0,0,0,0,0,0,-2.6384,-2.6382,-2.6336,-2.633,-2.6322,-2.6277,-2.6319,-2.6299,-2.6213,-2.6253,-2.6204,-2.62,-2.6194,-2.6191,-2.6188,-2.6228,-2.6226,-2.6153,-2.6154,-2.6155,-2.6155,0,0,0,0,0,0,0,-2.6386,-2.6384,-2.6371,-2.6336,-2.6327,-2.63,-2.6291,-2.6315,-2.6245,-2.6249,-2.624,-2.6234,-2.619,-2.6187,-2.6186,-2.6225,-2.6153,-2.6154,-2.6155,-2.6156,-2.6335,-2.6339,0,0,0,0,0,0,-2.6397,-2.6386,-2.6373,-2.6369,-2.6345,-2.6302,-2.6293,-2.6295,-2.6244,-2.6233,-2.6238,-2.6229,-2.6187,-2.6185,-2.6184,-2.6278,-2.6155,-2.6156,-2.6156,-2.6331,-2.6336,-2.634,0,0,0,0,0,0,-2.6398,-2.6397,-2.6376,-2.6375,-2.637,-2.6306,-2.6309,-2.6296,-2.6293,-2.6236,-2.6223,-2.6248,-2.6184,-2.6182,-2.6221,-2.6274,-2.6156,-2.6157,-2.6326,-2.6332,-2.6338,-2.6467,0,0,0,0,0,0,-2.6399,-2.6398,-2.6426,-2.6377,-2.6371,-2.6412,-2.6312,-2.6298,-2.6295,-2.6284,-2.6242,-2.6231,-2.6181,-2.622,-2.6222,-2.6274,-2.6158,-2.6321,-2.6329,-2.6336,-2.6457,-2.6476,-2.6493,0,0,0,0,0,-2.64,-2.6465,-2.6428,-2.6427,-2.6404,-2.6415,-2.6412,-2.6351,-2.63,-2.6329,-2.6293,-2.6233,-2.6269,-2.6225,-2.6226,-2.6279,-2.6317,-2.6327,-2.6335,-2.6449,-2.6473,-2.6492,0,0,0,0,0,0,-2.6522,-2.6457,-2.6415,-2.6466,-2.6447,-2.6394,-2.6428,-2.6377,-2.6373,-2.6362,-2.6289,-2.6281,-2.6331,-2.6309,-2.6261,-2.6358,-2.6284,-2.6294,-2.637,-2.6392,-2.6409,-2.6413,-2.6159,0,0,0,0,0,-2.6555,-2.6567,-2.651,-2.656,-2.6553,-2.6493,-2.6495,-2.6451,-2.6429,-2.642,-2.6386,-2.6369,-2.6377,-2.6383,-2.6387,-2.6455,-2.6446,-2.6493,-2.651,-2.6525,-2.6534,-2.6573,-2.6594,-2.637,-2.637,-2.637,0,0,-2.6622,-2.6588,-2.66,-2.6584,-2.6564,-2.6581,-2.6487,-2.6507,-2.652,-2.6424,-2.6458,-2.6434,-2.6411,-2.6466,-2.6488,-2.6449,-2.6595,-2.6537,-2.6549,-2.655,-2.6584,-2.6606,-2.6625,-2.6376,-2.6375,-2.6374,0,0,-2.6753,-2.6728,-2.6768,-2.6752,-2.6723,-2.6684,-2.6694,-2.6651,-2.6631,-2.6664,-2.6594,-2.661,-2.6623,-2.661,-2.6606,-2.674,-2.6685,-2.6744,-2.6835,-2.6874,-2.6891,-2.6907,-2.6957,-2.6975,-2.6753,-2.6754,-2.6754,0,-2.6841,-2.6861,-2.6796,-2.6823,-2.6819,-2.6734,-2.6777,-2.6764,-2.6739,-2.674,-2.6697,-2.6715,-2.6693,-2.6746,-2.6779,-2.6777,-2.6789,-2.6747,-2.6894,-2.6909,-2.6922,-2.6969,-2.6988,-2.6761,-2.676,-2.6759,-2.6759,0,-2.6972,-2.6988,-2.7025,-2.7003,-2.7004,-2.7039,-2.6982,-2.6991,-2.6949,-2.6916,-2.6955,-2.6926,-2.6924,-2.6934,-2.6892,-2.6982,-2.6959,-2.6907,-2.683,-2.6952,-2.6995,-2.7012,-2.6771,-2.6769,-2.6766,-2.6765,0,0,-2.7173,-2.7119,-2.7134,-2.7125,-2.709,-2.7102,-2.7136,-2.7134,-2.7145,-2.7133,-2.716,-2.7177,-2.7129,-2.7124,-2.7081,-2.7115,-2.7227,-2.7058,-2.7057,-2.7092,-2.7329,-2.7369,-2.739,-2.7192,-2.7195,-2.7198,-2.7331,0,-2.7297,-2.7347,-2.7293,-2.7357,-2.7373,-2.7296,-2.7325,-2.731,-2.7281,-2.7293,-2.7263,-2.7276,-2.7211,-2.7208,-2.7238,-2.7207,-2.7274,-2.7197,-2.7219,-2.7221,-2.7227,-2.7412,-2.7453,-2.7581,-2.7348,-2.735,-2.7352,0,-2.7445,-2.7441,-2.7507,-2.7473,-2.7477,-2.7505,-2.7501,-2.7513,-2.7495,-2.7473,-2.7471,-2.742,-2.7454,-2.7381,-2.7429,-2.7378,-2.7385,-2.7372,-2.7376,-2.7375,-2.7293,-2.7417,-2.7619,-2.7639,-2.7378,-2.7376,-2.7374,0,-2.7588,-2.7599,-2.764,-2.7635,-2.7595,-2.7617,-2.7602,-2.7581,-2.7585,-2.7584,-2.7586,-2.7589,-2.7591,-2.7596,-2.7549,-2.75,-2.7605,-2.7526,-2.7589,-2.759,-2.7612,-2.7612,-2.7819,-2.7618,-2.7618,-2.7617,-2.7617,0,-2.773,-2.7774,-2.7704,-2.7729,-2.7777,-2.7717,-2.7767,-2.7745,-2.7728,-2.7751,-2.7685,-2.7708,-2.7644,-2.7662,-2.7626,-2.7673,-2.7674,-2.7659,-2.7649,-2.7665,-2.7667,-2.7667,-2.7657,-2.7622,-2.7621,-2.762,-2.7619,0,-2.7895,-2.785,-2.789,-2.7852,-2.7844,-2.7881,-2.7849,-2.7873,-2.7843,-2.7873,-2.7876,-2.7829,-2.7847,-2.7801,-2.7812,-2.7788,-2.7857,-2.7832,-2.7862,-2.7855,-2.792,-2.7915,-2.8135,-2.8162,-2.7944,-2.7946,-2.7948,0,-2.7989,-2.8021,-2.7987,-2.7997,-2.7986,-2.8003,-2.8008,-2.7952,-2.796,-2.7946,-2.7973,-2.7986,-2.7992,-2.8026,-2.7994,-2.8004,-2.7979,-2.8056,-2.798,-2.7996,-2.7982,-2.798,-2.7985,-2.8071,-2.8074,-2.8076,-2.8078,0,-2.816,-2.8138,-2.8146,-2.8149,-2.8157,-2.8156,-2.8151,-2.8164,-2.8105,-2.8118,-2.8136,-2.8142,-2.8155,-2.8169,-2.8173,-2.816,-2.8111,-2.8103,-2.8118,-2.8133,-2.815,-2.8144,-2.7905,-2.8097,-2.8095,-2.8094,-2.8093,-2.8092,-2.8292,-2.8319,-2.83,-2.8314,-2.8305,-2.8304,-2.8325,-2.8299,-2.8313,-2.8318,-2.8286,-2.8312,-2.8299,-2.8299,-2.8293,-2.8314,-2.828,-2.8301,-2.8307,-2.8313,-2.8324,-2.8148,-2.8315,-2.8314,-2.8314,-2.8313,-2.8313,0,-2.8461,-2.8447,-2.846,-2.8456,-2.8469,-2.8422,-2.8416,-2.8429,-2.8452,-2.8445,-2.8454,-2.8477,-2.8493,-2.8465,-2.8477,-2.85,-2.8478,-2.8505,-2.8502,-2.8501,-2.8354,-2.834,-2.8523,-2.8523,-2.8523,-2.8523,-2.8523,-2.8523,-2.855,-2.8593,-2.857,-2.8611,-2.8597,-2.8621,-2.8622,-2.8622,-2.8616,-2.8645,-2.8657,-2.8639,-2.8625,-2.8636,-2.865,-2.8642,-2.865,-2.8685,-2.867,-2.8532,-2.8511,-2.8491,-2.8478,-2.8687,-2.8688,-2.8815,-2.8816,-2.8817]},{"header":{"parameterUnit":"m.s-1","parameterCategory":1,"la1":30.2991,"la2":30.254,"lo1":-89.0895,"lo2":-89.0444,"dy":0.0017,"dx":0.0017,"nx":28,"ny":28,"refTime":"2023-10-26T03:00:00:Z","depth":0,"parameterNumber":3,"parameterNumberName":"V-component_of_WINDS"},"data":[0,0,0,0,0,0,0,0,0,0,0,0,0,0,0,0,0,0,0,0,0,0,0,0,0,0,0,0,0,0,0,0,0,0,0,0,0,0,0,0,0,0,0,0,0,0,0,0,0,0,0,0,0,0,0,0,0,0,-0.6547,-0.6547,0,-0.6636,-0.6637,-0.6638,-0.6717,-0.6718,-0.6719,-0.672,-0.6805,-0.6806,-0.6807,0,0,0,0,0,0,0,0,0,0,0,0,0,-0.6434,-0.6436,-0.6546,-0.6548,-0.6549,-0.6636,-0.6637,-0.6638,-0.6717,-0.6718,-0.6719,-0.672,-0.6804,-0.6806,-0.6808,0,0,0,0,0,0,0,0,0,0,0,0,0,-0.6499,-0.6436,-0.6546,-0.6599,-0.6604,-0.6636,-0.6637,-0.6639,-0.6717,-0.6718,-0.6719,-0.6721,-0.6804,-0.6806,-0.6808,-0.6793,0,0,-0.6814,-0.6815,0,0,0,0,0,0,0,0,-0.6495,-0.6503,-0.659,-0.6595,-0.6601,-0.6667,-0.6629,-0.669,-0.6716,-0.6674,-0.672,-0.6721,-0.6757,-0.6763,-0.6777,-0.6797,-0.68,-0.6814,-0.6816,-0.6816,-0.6817,0,0,0,0,0,0,0,-0.6491,-0.6499,-0.6582,-0.6591,-0.6598,-0.6614,-0.6625,-0.6641,-0.6706,-0.6678,-0.6684,-0.6693,-0.6761,-0.6775,-0.6779,-0.6801,-0.6814,-0.6816,-0.6817,-0.6818,-0.6808,-0.6807,0,0,0,0,0,0,-0.6479,-0.6495,-0.6579,-0.6584,-0.6551,-0.6615,-0.6627,-0.6644,-0.6706,-0.6717,-0.6692,-0.6697,-0.677,-0.6777,-0.6783,-0.6767,-0.6816,-0.6818,-0.682,-0.681,-0.6808,-0.6806,0,0,0,0,0,0,-0.6476,-0.6486,-0.6575,-0.6541,-0.6554,-0.6616,-0.6634,-0.6645,-0.666,-0.6718,-0.6729,-0.6695,-0.6772,-0.678,-0.6789,-0.6771,-0.6819,-0.6821,-0.6812,-0.6809,-0.6807,-0.6736,0,0,0,0,0,0,-0.6473,-0.6485,-0.6482,-0.6541,-0.6556,-0.6583,-0.6633,-0.6646,-0.6664,-0.6671,-0.6723,-0.6733,-0.6773,-0.6785,-0.6791,-0.6774,-0.6823,-0.6814,-0.6811,-0.6808,-0.674,-0.6731,-0.6724,0,0,0,0,0,-0.6469,-0.6458,-0.6482,-0.6491,-0.6554,-0.6582,-0.659,-0.6639,-0.6662,-0.6658,-0.6694,-0.6731,-0.6772,-0.6786,-0.6793,-0.6776,-0.6815,-0.6811,-0.6808,-0.6743,-0.6733,-0.6724,0,0,0,0,0,0,-0.6394,-0.6467,-0.6494,-0.6503,-0.6535,-0.6595,-0.6592,-0.6626,-0.6652,-0.6657,-0.6714,-0.6725,-0.6727,-0.6753,-0.6767,-0.6763,-0.6798,-0.6796,-0.6746,-0.6737,-0.6729,-0.6722,-0.6825,0,0,0,0,0,-0.6379,-0.6398,-0.6459,-0.646,-0.6476,-0.653,-0.6544,-0.6579,-0.6614,-0.6628,-0.6666,-0.6697,-0.6716,-0.6728,-0.6749,-0.6743,-0.6754,-0.6735,-0.6727,-0.672,-0.6717,-0.6713,-0.6704,-0.6795,-0.6795,-0.6795,0,0,-0.6348,-0.6389,-0.6398,-0.6446,-0.6476,-0.6491,-0.6542,-0.6557,-0.6567,-0.663,-0.6641,-0.6669,-0.6707,-0.6708,-0.671,-0.6729,-0.6694,-0.6716,-0.671,-0.6711,-0.6708,-0.67,-0.6692,-0.6793,-0.6793,-0.6794,0,0,-0.6298,-0.6333,-0.6336,-0.6364,-0.6408,-0.6444,-0.6444,-0.6498,-0.652,-0.6532,-0.6578,-0.6589,-0.6623,-0.6647,-0.6664,-0.6617,-0.6651,-0.6622,-0.658,-0.6575,-0.6568,-0.6561,-0.6543,-0.6536,-0.6619,-0.6619,-0.6619,0,-0.6253,-0.628,-0.6333,-0.6344,-0.6362,-0.642,-0.6421,-0.6445,-0.6493,-0.6503,-0.6524,-0.6564,-0.6594,-0.66,-0.6588,-0.66,-0.66,-0.6617,-0.6565,-0.6559,-0.6554,-0.6537,-0.653,-0.6615,-0.6616,-0.6616,-0.6617,0,-0.6221,-0.6238,-0.6235,-0.6281,-0.6299,-0.6305,-0.6355,-0.6366,-0.6397,-0.6429,-0.6438,-0.6475,-0.6503,-0.6507,-0.6538,-0.6516,-0.6526,-0.6555,-0.6591,-0.6541,-0.6525,-0.6519,-0.661,-0.6611,-0.6612,-0.6613,0,0,-0.6131,-0.6202,-0.62,-0.622,-0.627,-0.6284,-0.6289,-0.6318,-0.6325,-0.6355,-0.6359,-0.6384,-0.641,-0.6429,-0.6462,-0.6457,-0.6414,-0.6486,-0.6488,-0.647,-0.6389,-0.6366,-0.6358,-0.6437,-0.6436,-0.6435,-0.6385,0,-0.6089,-0.6107,-0.6152,-0.6154,-0.6168,-0.622,-0.6225,-0.6254,-0.6283,-0.6297,-0.6328,-0.6344,-0.6379,-0.639,-0.6388,-0.642,-0.6399,-0.6424,-0.6439,-0.6439,-0.6428,-0.635,-0.6327,-0.6279,-0.638,-0.6379,-0.6378,0,-0.6044,-0.607,-0.6073,-0.6119,-0.6127,-0.6131,-0.6159,-0.6172,-0.6205,-0.6226,-0.6244,-0.628,-0.6286,-0.6319,-0.6326,-0.6342,-0.635,-0.6366,-0.6365,-0.6369,-0.6405,-0.635,-0.6265,-0.6257,-0.6369,-0.637,-0.6371,0,-0.5975,-0.6011,-0.6017,-0.6032,-0.6086,-0.6087,-0.6109,-0.6143,-0.6156,-0.6179,-0.6187,-0.621,-0.6222,-0.6237,-0.6276,-0.6298,-0.6277,-0.6315,-0.6292,-0.6291,-0.6286,-0.6286,-0.62,-0.6292,-0.6292,-0.6293,-0.6293,0,-0.5923,-0.5923,-0.5986,-0.599,-0.5989,-0.6039,-0.6036,-0.6063,-0.6091,-0.6099,-0.6144,-0.6149,-0.6202,-0.6212,-0.6242,-0.6241,-0.6247,-0.6262,-0.627,-0.6258,-0.6255,-0.6264,-0.6267,-0.6291,-0.6291,-0.6292,-0.6292,0,-0.5848,-0.5891,-0.59,-0.5949,-0.5961,-0.5958,-0.5999,-0.6003,-0.6033,-0.6041,-0.6045,-0.6092,-0.6106,-0.6147,-0.6171,-0.6191,-0.618,-0.6196,-0.617,-0.6175,-0.6149,-0.615,-0.6065,-0.6056,-0.6154,-0.6153,-0.6153,0,-0.5812,-0.5813,-0.5861,-0.587,-0.589,-0.5903,-0.5916,-0.5962,-0.5973,-0.6008,-0.6006,-0.6023,-0.604,-0.6058,-0.6093,-0.611,-0.6126,-0.6095,-0.6129,-0.6115,-0.6124,-0.6123,-0.6122,-0.6087,-0.6086,-0.6085,-0.6084,0,-0.5743,-0.5763,-0.5781,-0.5804,-0.5818,-0.5839,-0.5862,-0.5865,-0.5917,-0.5926,-0.5941,-0.5953,-0.5977,-0.5992,-0.6014,-0.6034,-0.6066,-0.6073,-0.6068,-0.6056,-0.604,-0.6046,-0.6148,-0.6075,-0.6076,-0.6077,-0.6077,-0.6077,-0.5686,-0.5688,-0.5721,-0.5737,-0.5759,-0.5778,-0.5783,-0.5812,-0.5826,-0.585,-0.5875,-0.5886,-0.5913,-0.5947,-0.5963,-0.5971,-0.5988,-0.5982,-0.5981,-0.5978,-0.5971,-0.6038,-0.5975,-0.5975,-0.5976,-0.5976,-0.5976,0,-0.5618,-0.5641,-0.5656,-0.5686,-0.5697,-0.5727,-0.5752,-0.576,-0.5769,-0.5793,-0.5807,-0.5821,-0.5835,-0.587,-0.5886,-0.5885,-0.59,-0.5887,-0.5888,-0.5891,-0.5956,-0.5957,-0.5875,-0.5875,-0.5875,-0.5875,-0.5875,-0.5875,-0.5585,-0.5588,-0.561,-0.5623,-0.5645,-0.5657,-0.5668,-0.5684,-0.5703,-0.5717,-0.5729,-0.5752,-0.5778,-0.5796,-0.5809,-0.5818,-0.5821,-0.5804,-0.5818,-0.5877,-0.5887,-0.5896,-0.5898,-0.5804,-0.5804,-0.5753,-0.5752,-0.5752]}]]